Weather History for Seward, AK

Change the Weather History Date:

Wednesday, November 13, 2013

  Actual Average Record
Temperature  
Mean Temperature 32 °F -  
Max Temperature 37 °F 35 °F 48 °F (1996)
Min Temperature 28 °F 25 °F 12 °F (1977)
Degree Days  
Heating Degree Days 32    
Moisture  
Dew Point 20 °F    
Average Humidity 65    
Maximum Humidity 85    
Minimum Humidity 43    
Precipitation  
Precipitation 0.00 in - - ()
Sea Level Pressure  
Sea Level Pressure 30.14 in    
Wind  
Wind Speed 13 mph (NNE)    
Max Wind Speed 18 mph    
Max Gust Speed 31 mph    
Visibility 10 miles    
Events      
Averages and records for this station are not official NWS values.
T = Trace of Precipitation, MM = Missing Value Source: NWS Daily Summary

Daily Weather History Graph

Daily Weather History Graph

Search for Another Location

Airport:

Trip Planner

Search our weather history database for the weather conditions in past years. The results will help you decide how hot, cold, wet, or windy it might be!

Date:

Astronomy

Nov. 13, 2013 Rise Set
Actual Time 8:52 AM AKST 4:30 PM AKST
Civil Twilight 8:03 AM AKST 5:19 PM AKST
Nautical Twilight 7:11 AM AKST 6:11 PM AKST
Astronomical Twilight 6:22 AM AKST 7:00 PM AKST
Moon 3:13 PM AKST (11/13) 3:58 AM AKST (11/13)
Length of Visible Light 9h 15m
Length of Day
7h 38m
Waxing Gibbous, 86% of the Moon is Illuminated
Nov 13
Waxing Gibbous
Nov 17
Full
Nov 25
Last Quarter
Dec 2
New
Dec 9
First Quarter

Hourly Weather History & Observations

Time (AKST) Temp. Windchill Dew Point Humidity Pressure Visibility Wind Dir Wind Speed Gust Speed Precip Events Conditions
12:53 AM 28.9 °F 16.9 °F 12.0 °F 49% 30.07 in 10.0 mi NNE 17.3 mph 31.1 mph N/A   Overcast
1:53 AM 28.0 °F 15.7 °F 14.0 °F 56% 30.06 in 10.0 mi NNE 17.3 mph 24.2 mph N/A   Mostly Cloudy
3:53 AM 28.9 °F 16.9 °F 15.1 °F 56% 30.05 in 10.0 mi NNE 17.3 mph 28.8 mph N/A   Overcast
4:53 AM 30.9 °F 19.8 °F 10.9 °F 43% 30.07 in 10.0 mi NNE 16.1 mph 28.8 mph N/A   Mostly Cloudy
5:53 AM 30.9 °F 20.2 °F 14.0 °F 50% 30.06 in 10.0 mi NNE 15.0 mph 27.6 mph N/A   Mostly Cloudy
6:53 AM 30.9 °F 21.7 °F 16.0 °F 54% 30.07 in 10.0 mi NNE 11.5 mph 23.0 mph N/A   Scattered Clouds
7:53 AM 32.0 °F 20.5 °F 18.0 °F 56% 30.10 in 10.0 mi NNE 18.4 mph 28.8 mph N/A   Overcast
8:53 AM 30.0 °F 19.5 °F 18.0 °F 61% 30.11 in 10.0 mi North 13.8 mph 23.0 mph N/A   Clear
9:53 AM 30.9 °F 19.8 °F 19.0 °F 61% 30.14 in 10.0 mi North 16.1 mph 27.6 mph N/A   Clear
10:53 AM 32.0 °F 22.5 °F 19.0 °F 59% 30.17 in 10.0 mi NNE 12.7 mph 25.3 mph N/A   Clear
11:53 AM 33.1 °F 23.4 °F 21.0 °F 61% 30.17 in 10.0 mi NNE 13.8 mph 21.9 mph N/A   Clear
12:53 PM 36.0 °F 26.7 °F 21.9 °F 57% 30.17 in 10.0 mi NNE 15.0 mph 20.7 mph N/A   Clear
1:53 PM 37.0 °F 29.3 °F 23.0 °F 57% 30.17 in 10.0 mi North 11.5 mph - N/A   Clear
2:53 PM 36.0 °F 30.3 °F 24.1 °F 62% 30.17 in 10.0 mi North 6.9 mph 19.6 mph N/A   Clear
3:53 PM 34.0 °F 25.0 °F 24.1 °F 67% 30.17 in 10.0 mi NNE 12.7 mph 18.4 mph N/A   Clear
4:53 PM 34.0 °F 27.2 °F 25.0 °F 70% 30.17 in 10.0 mi North 8.1 mph - N/A   Clear
5:53 PM 32.0 °F 25.6 °F 25.0 °F 75% 30.17 in 10.0 mi North 6.9 mph - N/A   Clear
6:53 PM 30.9 °F - 25.0 °F 79% 30.18 in 10.0 mi Calm Calm - N/A   Clear
7:53 PM 30.0 °F 26.5 °F 25.0 °F 82% 30.17 in 10.0 mi NNW 3.5 mph - N/A   Clear
8:53 PM 28.9 °F - 24.1 °F 82% 30.16 in 10.0 mi Calm Calm - N/A   Clear
9:53 PM 28.9 °F - 24.1 °F 82% 30.17 in 10.0 mi Calm Calm - N/A   Clear
10:53 PM 28.0 °F - 24.1 °F 85% 30.18 in 10.0 mi Calm Calm - N/A   Clear
11:53 PM 28.0 °F 22.8 °F 24.1 °F 85% 30.17 in 10.0 mi NNW 4.6 mph - N/A   Clear